FW6908 Weather Reports


time (UTC)temp
C
wind
direction
speed
KPH
gust
KPH
rain 1hr
cm
rain 24hr
cm
rain mn
cm
humidity
%
barometer
mb
20220930165555 25 219 3.2 6.4 0.00 0.00 0.00 49 1019.4
20220930165052 25 249 4.8 9.7 0.00 0.00 0.00 49 1019.3
20220930164554 26 252 3.2 9.7 0.00 0.00 0.00 49 1019.3
20220930164047 26 257 4.8 6.4 0.00 0.00 0.00 48 1019.1
20220930163547 26 246 4.8 12.9 0.00 0.00 0.00 48 1019.1
20220930163046 26 266 6.4 12.9 0.00 0.00 0.00 48 1019.1
20220930162545 26 244 4.8 11.3 0.00 0.00 0.00 47 1019.0
20220930162045 26 232 4.8 11.3 0.00 0.00 0.00 47 1018.9
20220930161545 26 277 8.0 12.9 0.00 0.00 0.00 46 1018.9
20220930161045 26 261 6.4 12.9 0.00 0.00 0.00 46 1018.8
20220930160545 26 255 8.0 12.9 0.00 0.00 0.00 46 1018.8
20220930160045 26 258 9.7 11.3 0.00 0.00 0.00 45 1018.9
20220930155546 26 248 4.8 12.9 0.00 0.00 0.00 44 1018.9
20220930155043 26 267 8.0 12.9 0.00 0.00 0.00 42 1018.8
20220930154549 27 266 6.4 11.3 0.00 0.00 0.00 41 1018.8
20220930154043 27 289 6.4 11.3 0.00 0.00 0.00 41 1018.7
20220930153542 27 281 6.4 12.9 0.00 0.00 0.00 40 1018.7
20220930153057 27 248 8.0 12.9 0.00 0.00 0.00 40 1018.7
20220930152541 27 244 9.7 16.1 0.00 0.00 0.00 39 1018.6
20220930152041 27 248 11.3 16.1 0.00 0.00 0.00 38 1018.6
20220930151545 27 298 9.7 12.9 0.00 0.00 0.00 38 1018.5
20220930151039 27 283 8.0 12.9 0.00 0.00 0.00 38 1018.5
20220930150540 27 242 6.4 14.5 0.00 0.00 0.00 37 1018.5
20220930150038 27 211 8.0 17.7 0.00 0.00 0.00 37 1018.4
20220930145538 27 254 11.3 17.7 0.00 0.00 0.00 37 1018.4
20220930145042 27 248 11.3 17.7 0.00 0.00 0.00 37 1018.3
20220930144536 27 265 11.3 17.7 0.00 0.00 0.00 38 1018.4
20220930144036 27 279 9.7 17.7 0.00 0.00 0.00 38 1018.4
20220930143536 27 270 11.3 17.7 0.00 0.00 0.00 38 1018.2
20220930143035 28 265 8.0 14.5 0.00 0.00 0.00 39 1018.2
20220930142536 28 216 9.7 19.3 0.00 0.00 0.00 38 1018.1
20220930142034 27 238 12.9 19.3 0.00 0.00 0.00 39 1018.1
20220930141534 27 269 14.5 20.9 0.00 0.00 0.00 38 1018.1
20220930141036 27 249 14.5 20.9 0.00 0.00 0.00 36 1018.0
20220930140532 28 241 12.9 19.3 0.00 0.00 0.00 36 1018.0
20220930140032 28 246 12.9 19.3 0.00 0.00 0.00 38 1017.9
20220930135530 27 244 11.3 20.9 0.00 0.00 0.00 40 1017.8
20220930135029 27 236 16.1 20.9 0.00 0.00 0.00 39 1017.7
20220930134534 27 223 12.9 22.5 0.00 0.00 0.00 40 1017.8
20220930134028 27 263 14.5 22.5 0.00 0.00 0.00 41 1017.7
20220930133528 28 259 14.5 22.5 0.00 0.00 0.00 40 1017.6
20220930133028 28 245 11.3 22.5 0.00 0.00 0.00 39 1017.6
20220930132527 28 250 11.3 29.0 0.00 0.00 0.00 40 1017.6
20220930132030 28 212 16.1 27.4 0.00 0.00 0.00 39 1017.5
20220930131526 28 286 12.9 22.5 0.00 0.00 0.00 37 1017.5
20220930131025 28 269 14.5 22.5 0.00 0.00 0.00 34 1017.5
20220930130528 28 242 14.5 20.9 0.00 0.00 0.00 35 1017.4
20220930130024 28 246 14.5 19.3 0.00 0.00 0.00 35 1017.4
20220930125523 28 228 12.9 20.9 0.00 0.00 0.00 34 1017.3
20220930125022 28 269 12.9 19.3 0.00 0.00 0.00 35 1017.3
20220930124521 29 222 12.9 19.3 0.00 0.00 0.00 34 1017.4
20220930124025 29 274 11.3 17.7 0.00 0.00 0.00 33 1017.3
20220930123523 29 182 11.3 14.5 0.00 0.00 0.00 33 1017.2
20220930123020 29 221 6.4 17.7 0.00 0.00 0.00 33 1017.2
20220930122519 29 270 8.0 14.5 0.00 0.00 0.00 33 1017.1
20220930122019 29 251 9.7 14.5 0.00 0.00 0.00 33 1017.1
20220930121514 29 221 9.7 16.1 0.00 0.00 0.00 32 1017.0
20220930121013 29 204 8.0 16.1 0.00 0.00 0.00 32 1017.1
20220930120511 29 250 9.7 17.7 0.00 0.00 0.00 34 1017.2
20220930120011 28 204 6.4 14.5 0.00 0.00 0.00 35 1017.0
20220930115510 29 223 8.0 16.1 0.00 0.00 0.00 34 1017.2
20220930115009 28 186 12.9 19.3 0.00 0.00 0.00 34 1017.1
20220930114513 28 205 12.9 17.7 0.00 0.00 0.00 34 1017.2
20220930114009 29 257 9.7 17.7 0.00 0.00 0.00 35 1017.1
20220930113509 29 195 9.7 19.3 0.00 0.00 0.00 35 1017.1
20220930113008 28 194 11.3 19.3 0.00 0.00 0.00 35 1017.2
20220930112511 29 235 12.9 20.9 0.00 0.00 0.00 36 1017.2
20220930112007 29 227 11.3 20.9 0.00 0.00 0.00 36 1017.2
20220930111515 29 202 14.5 24.1 0.00 0.00 0.00 37 1017.2
20220930111007 29 197 9.7 19.3 0.00 0.00 0.00 39 1017.2
20220930110506 28 204 11.3 22.5 0.00 0.00 0.00 39 1017.1
20220930110005 28 224 12.9 22.5 0.00 0.00 0.00 39 1017.1
20220930105505 28 239 14.5 20.9 0.00 0.00 0.00 38 1017.0
20220930105005 29 221 8.0 19.3 0.00 0.00 0.00 36 1017.0
20220930104506 29 235 8.0 14.5 0.00 0.00 0.00 34 1017.0
20220930104004 29 214 8.0 14.5 0.00 0.00 0.00 34 1017.0
20220930103502 28 297 8.0 16.1 0.00 0.00 0.00 34 1017.1
20220930103002 28 265 11.3 16.1 0.00 0.00 0.00 35 1017.0
20220930102501 28 261 9.7 14.5 0.00 0.00 0.00 35 1017.0
20220930102002 28 278 9.7 14.5 0.00 0.00 0.00 36 1017.0
20220930101501 28 259 9.7 14.5 0.00 0.00 0.00 37 1017.0
20220930101000 28 253 11.3 14.5 0.00 0.00 0.00 34 1017.1
20220930100600 28 255 6.4 12.9 0.00 0.00 0.00 34 1017.0
20220930100058 28 243 8.0 11.3 0.00 0.00 0.00 32 1017.1
20220930095558 28 134 1.6 11.3 0.00 0.00 0.00 33 1017.0
20220930095102 28 287 4.8 11.3 0.00 0.00 0.00 33 1017.0
20220930094649 28 227 6.4 12.9 0.00 0.00 0.00 33 1017.0
20220930094056 28 212 6.4 12.9 0.00 0.00 0.00 34 1017.0
20220930093555 28 161 3.2 11.3 0.00 0.00 0.00 35 1016.9
20220930093125 28 259 6.4 11.3 0.00 0.00 0.00 34 1017.0
20220930092603 28 289 3.2 11.3 0.00 0.00 0.00 34 1017.0
20220930092051 27 296 4.8 11.3 0.00 0.00 0.00 36 1017.0
20220930091551 27 278 6.4 12.9 0.00 0.00 0.00 37 1017.2
20220930091050 27 254 6.4 12.9 0.00 0.00 0.00 39 1017.2
20220930090546 27 294 4.8 14.5 0.00 0.00 0.00 40 1017.2
20220930090045 27 242 8.0 14.5 0.00 0.00 0.00 38 1017.2
20220930085544 27 191 6.4 12.9 0.00 0.00 0.00 39 1017.1
20220930085045 27 250 3.2 9.7 0.00 0.00 0.00 41 1017.1
20220930084544 27 192 4.8 9.7 0.00 0.00 0.00 40 1017.1
20220930084041 26 200 1.6 8.0 0.00 0.00 0.00 43 1017.2
20220930083540 27 288 4.8 8.0 0.00 0.00 0.00 42 1017.1
20220930083103 27 217 3.2 9.7 0.00 0.00 0.00 44 1017.1
20220930082538 27 211 0.0 6.4 0.00 0.00 0.00 42 1017.1
20220930082045 26 283 1.6 9.7 0.00 0.00 0.00 43 1017.0
20220930081528 26 208 4.8 9.7 0.00 0.00 0.00 43 1017.0
20220930081026 26 180 0.0 8.0 0.00 0.00 0.00 43 1017.0
20220930080526 26 300 4.8 8.0 0.00 0.00 0.00 43 1016.9
20220930080029 26 229 1.6 6.4 0.00 0.00 0.00 45 1016.9
20220930075522 26 255 3.2 6.4 0.00 0.00 0.00 45 1016.9
20220930075021 26 225 0.0 6.4 0.00 0.00 0.00 45 1016.8
20220930074525 25 252 1.6 6.4 0.00 0.00 0.00 45 1016.8
20220930074023 25 309 1.6 6.4 0.00 0.00 0.00 48 1016.8
20220930073516 25 360 1.6 6.4 0.00 0.00 0.00 50 1016.6
20220930073015 25 29 0.0 6.4 0.00 0.00 0.00 51 1016.6
20220930072514 25 342 3.2 6.4 0.00 0.00 0.00 52 1016.5
20220930072022 24 355 3.2 6.4 0.00 0.00 0.00 53 1016.4
20220930071511 24 328 3.2 6.4 0.00 0.00 0.00 54 1016.5
20220930071009 24 249 1.6 6.4 0.00 0.00 0.00 57 1016.4
20220930070510 24 261 1.6 6.4 0.00 0.00 0.00 58 1016.4
20220930070012 23 116 0.0 4.8 0.00 0.00 0.00 60 1016.4
20220930065506 23 132 1.6 4.8 0.00 0.00 0.00 60 1016.4
20220930065005 23 67 0.0 4.8 0.00 0.00 0.00 60 1016.3
20220930064503 23 61 0.0 4.8 0.00 0.00 0.00 61 1016.3
20220930064001 23 40 0.0 3.2 0.00 0.00 0.00 61 1016.3
20220930063600 23 18 0.0 4.8 0.00 0.00 0.00 63 1016.3
20220930063058 22 17 1.6 6.4 0.00 0.00 0.00 66 1016.2
20220930062557 21 360 3.2 6.4 0.00 0.00 0.00 68 1016.1
20220930062101 21 347 3.2 6.4 0.00 0.00 0.00 70 1016.1
20220930061554 21 9 1.6 6.4 0.00 0.00 0.00 71 1016.2
20220930061056 21 355 1.6 8.0 0.00 0.00 0.00 71 1016.1
20220930060551 20 5 4.8 8.0 0.00 0.00 0.00 72 1016.1
20220930060132 20 348 0.0 6.4 0.00 0.00 0.00 73 1016.1
20220930055548 20 345 1.6 6.4 0.00 0.00 0.00 73 1016.1
20220930055100 19 17 0.0 3.2 0.00 0.00 0.00 74 1016.0
20220930054551 19 11 0.0 4.8 0.00 0.00 0.00 75 1016.0
20220930054043 18 355 0.0 6.4 0.00 0.00 0.00 75 1016.0
20220930053543 18 5 3.2 8.0 0.00 0.00 0.00 75 1015.9
20220930053041 18 11 4.8 8.0 0.00 0.00 0.00 75 1015.9
20220930052540 18 61 4.8 9.7 0.00 0.00 0.00 77 1015.8
20220930052042 18 57 4.8 8.0 0.00 0.00 0.00 78 1015.8
20220930051538 17 61 3.2 8.0 0.00 0.00 0.00 79 1015.8
20220930051036 17 40 3.2 8.0 0.00 0.00 0.00 80 1015.8
20220930050534 17 17 1.6 6.4 0.00 0.00 0.00 80 1015.8
20220930050033 17 60 1.6 8.0 0.00 0.00 0.00 81 1015.7
20220930045533 17 46 4.8 9.7 0.00 0.00 0.00 81 1015.6
20220930045032 17 71 4.8 9.7 0.00 0.00 0.00 81 1015.7
20220930044541 17 35 4.8 8.0 0.00 0.00 0.00 81 1015.7
20220930044029 17 36 1.6 8.0 0.00 0.00 0.00 81 1015.7
20220930043528 17 56 3.2 9.7 0.00 0.00 0.00 81 1015.7
20220930043030 17 29 3.2 9.7 0.00 0.00 0.00 82 1015.7
20220930042527 17 61 3.2 16.1 0.00 0.00 0.00 81 1015.7
20220930042027 17 25 8.0 16.1 0.00 0.00 0.00 81 1015.6
20220930041534 17 37 3.2 9.7 0.00 0.00 0.00 82 1015.6
20220930041024 17 17 0.0 6.4 0.00 0.00 0.00 82 1015.5
20220930040524 17 360 1.6 6.4 0.00 0.00 0.00 83 1015.5
20220930040024 17 52 3.2 6.4 0.00 0.00 0.00 83 1015.4
20220930035524 17 5 3.2 8.0 0.00 0.00 0.00 83 1015.4
20220930035024 17 50 3.2 8.0 0.00 0.00 0.00 83 1015.4
20220930034530 17 9 0.0 8.0 0.00 0.00 0.00 83 1015.4
20220930034029 17 57 3.2 9.7 0.00 0.00 0.00 83 1015.4
20220930033522 17 31 6.4 9.7 0.00 0.00 0.00 83 1015.5
20220930033021 17 14 3.2 6.4 0.00 0.00 0.00 83 1015.5
20220930032521 17 52 0.0 8.0 0.00 0.00 0.00 83 1015.4
20220930032021 17 55 3.2 9.7 0.00 0.00 0.00 83 1015.3
20220930031522 17 32 6.4 9.7 0.00 0.00 0.00 83 1015.2
20220930031018 18 40 1.6 6.4 0.00 0.00 0.00 84 1015.1
20220930030529 18 19 1.6 8.0 0.00 0.00 0.00 84 1015.2
20220930030022 18 78 3.2 8.0 0.00 0.00 0.00 84 1015.2
20220930025518 18 86 3.2 9.7 0.00 0.00 0.00 84 1015.2
20220930025016 18 59 6.4 9.7 0.00 0.00 0.00 84 1015.2
20220930024530 18 66 4.8 8.0 0.00 0.00 0.00 84 1015.2
20220930024014 18 40 4.8 8.0 0.00 0.00 0.00 84 1015.2
20220930023513 18 355 1.6 4.8 0.00 0.00 0.00 84 1015.2
20220930023015 18 55 0.0 3.2 0.00 0.00 0.00 84 1015.0
20220930022515 18 59 0.0 4.8 0.00 0.00 0.00 84 1015.0
20220930022015 18 60 0.0 6.4 0.00 0.00 0.00 84 1015.0
20220930021514 18 35 1.6 6.4 0.00 0.00 0.00 84 1015.1
20220930021011 18 70 3.2 8.0 0.00 0.00 0.00 84 1015.1
20220930020510 18 69 4.8 8.0 0.00 0.00 0.00 84 1015.1
20220930020034 18 57 1.6 6.4 0.00 0.00 0.00 84 1015.0
20220930015509 18 57 1.6 9.7 0.00 0.00 0.00 84 1015.0
20220930015009 19 40 4.8 9.7 0.00 0.00 0.00 84 1014.9
20220930014511 19 29 8.0 9.7 0.00 0.00 0.00 83 1014.9
20220930014007 19 24 3.2 6.4 0.00 0.00 0.00 83 1014.8
20220930013508 19 67 0.0 0.0 0.00 0.00 0.00 83 1014.9
20220930013006 19 67 0.0 0.0 0.00 0.00 0.00 83 1014.8
20220930012505 19 67 0.0 6.4 0.00 0.00 0.00 83 1014.9
20220930012005 19 68 1.6 6.4 0.00 0.00 0.00 83 1014.9
20220930011505 19 63 3.2 8.0 0.00 0.00 0.00 83 1014.8
20220930011007 19 71 4.8 9.7 0.00 0.00 0.00 82 1014.7
20220930010503 20 51 6.4 9.7 0.00 0.00 0.00 82 1014.8
20220930010011 20 42 6.4 8.0 0.00 0.00 0.00 82 1014.7
20220930005501 20 50 3.2 9.7 0.00 0.00 0.00 82 1014.8
20220930005001 20 55 4.8 9.7 0.00 0.00 0.00 81 1014.7
20220930004621 20 44 6.4 8.0 0.00 0.00 0.00 81 1014.6
20220930004059 20 48 3.2 6.4 0.00 0.00 0.00 80 1014.6
20220930003559 20 49 4.8 6.4 0.00 0.00 0.00 80 1014.5
20220930003104 20 69 1.6 6.4 0.00 0.00 0.00 80 1014.5
20220930002558 20 69 1.6 4.8 0.00 0.00 0.00 80 1014.5
20220930002100 20 71 1.6 4.8 0.00 0.00 0.00 80 1014.5
20220930001557 20 71 1.6 4.8 0.00 0.00 0.00 81 1014.3
20220930001056 20 73 1.6 4.8 0.00 0.00 0.00 81 1014.3
20220930000556 21 74 0.0 4.8 0.00 0.00 0.00 81 1014.2
20220930000054 21 74 0.0 4.8 0.00 0.00 0.00 82 1014.3
20220929235553 21 74 1.6 6.4 0.00 0.00 0.00 82 1014.2
20220929235054 21 73 3.2 6.4 0.00 0.00 0.00 82 1014.2
20220929234559 21 52 3.2 6.4 0.00 0.00 0.00 82 1014.2
20220929234053 21 46 3.2 6.4 0.00 0.00 0.00 82 1014.2
20220929233554 21 54 1.6 4.8 0.00 0.00 0.00 81 1014.1
20220929233057 21 55 1.6 6.4 0.00 0.00 0.00 82 1014.0
20220929232600 21 56 3.2 9.7 0.00 0.00 0.00 82 1014.1
20220929232052 21 54 6.4 9.7 0.00 0.00 0.00 82 1014.1
20220929231559 21 49 4.8 6.4 0.00 0.00 0.00 81 1014.0
20220929231053 21 56 3.2 6.4 0.00 0.00 0.00 82 1014.1
20220929230550 21 57 1.6 4.8 0.00 0.00 0.00 82 1014.0
20220929230126 21 58 3.2 4.8 0.00 0.00 0.00 82 1014.0
20220929225551 21 58 3.2 4.8 0.00 0.00 0.00 82 1014.0
20220929225049 21 61 3.2 6.4 0.00 0.00 0.00 82 1014.0
20220929224549 21 61 1.6 8.0 0.00 0.00 0.00 82 1014.0
20220929224049 21 49 3.2 8.0 0.00 0.00 0.00 82 1014.1
20220929223549 21 53 4.8 8.0 0.00 0.00 0.00 82 1014.1
20220929223053 21 49 1.6 9.7 0.00 0.00 0.00 81 1014.1
20220929222547 21 57 4.8 9.7 0.00 0.00 0.00 81 1014.0
20220929222047 21 49 4.8 8.0 0.00 0.00 0.00 81 1014.0
20220929221603 21 44 4.8 8.0 0.00 0.00 0.00 81 1014.0
20220929221045 21 49 4.8 8.0 0.00 0.00 0.00 80 1014.0
20220929220545 21 49 3.2 6.4 0.00 0.00 0.00 80 1013.9
20220929220050 21 49 0.0 0.0 0.00 0.00 0.00 80 1013.9
20220929215543 21 51 0.0 6.4 0.00 0.00 0.00 80 1013.9
20220929215051 21 51 0.0 8.0 0.00 0.00 0.00 80 1013.9
20220929214555 22 53 3.2 8.0 0.00 0.00 0.00 80 1013.9
20220929214040 22 48 3.2 4.8 0.00 0.00 0.00 80 1013.9
20220929213541 22 20 3.2 4.8 0.00 0.00 0.00 80 1013.8
20220929213058 22 21 1.6 4.8 0.00 0.00 0.00 80 1013.8
20220929212539 22 18 3.2 6.4 0.00 0.00 0.00 79 1013.7
20220929212038 22 20 3.2 6.4 0.00 0.00 0.00 79 1013.7
20220929211550 22 20 1.6 4.8 0.00 0.00 0.00 79 1013.7
20220929211035 22 64 3.2 6.4 0.00 0.00 0.00 80 1013.6
20220929210534 22 45 3.2 6.4 0.00 0.00 0.00 79 1013.6
20220929210037 22 330 0.0 4.8 0.00 0.00 0.00 79 1013.5
20220929205536 22 338 1.6 6.4 0.00 0.00 0.00 79 1013.5
20220929205032 22 276 3.2 6.4 0.00 0.00 0.00 80 1013.5
20220929204605 22 261 3.2 4.8 0.00 0.00 0.00 79 1013.4
20220929204133 22 289 1.6 4.8 0.00 0.00 0.00 79 1013.4
20220929203531 22 21 1.6 3.2 0.00 0.00 0.00 79 1013.3
20220929203030 22 26 0.0 4.8 0.00 0.00 0.00 78 1013.3
20220929202529 22 32 1.6 6.4 0.00 0.00 0.00 78 1013.1
20220929202028 22 15 3.2 6.4 0.00 0.00 0.00 77 1013.2
20220929201528 23 338 0.0 4.8 0.00 0.00 0.00 77 1013.1
20220929201034 23 192 0.0 3.2 0.00 0.00 0.00 77 1013.1
20220929200527 23 94 0.0 4.8 0.00 0.00 0.00 77 1013.1
20220929200027 23 94 0.0 6.4 0.00 0.00 0.00 76 1013.1
20220929195526 23 86 3.2 6.4 0.00 0.00 0.00 76 1013.1
20220929195028 23 62 1.6 4.8 0.00 0.00 0.00 76 1013.2
20220929194555 23 22 0.0 6.4 0.00 0.00 0.00 76 1013.1
20220929194026 23 17 3.2 6.4 0.00 0.00 0.00 76 1013.1
20220929193530 23 288 1.6 6.4 0.00 0.00 0.00 76 1013.1
20220929193026 23 281 1.6 9.7 0.00 0.00 0.00 76 1013.1
20220929192529 23 295 3.2 9.7 0.00 0.00 0.00 75 1013.0
20220929192025 23 279 4.8 9.7 0.00 0.00 0.00 75 1013.1
20220929191529 23 284 3.2 9.7 0.00 0.00 0.00 75 1013.1
20220929191027 23 280 3.2 9.7 0.00 0.00 0.00 74 1013.0
20220929190524 23 281 4.8 8.0 0.00 0.00 0.00 74 1013.0
20220929190039 23 263 4.8 9.7 0.00 0.00 0.00 74 1012.9
20220929185527 23 257 4.8 6.4 0.00 0.00 0.00 73 1012.9
20220929185026 24 267 1.6 6.4 0.00 0.00 0.00 73 1012.9
20220929184528 24 261 3.2 8.0 0.00 0.00 0.00 73 1012.9
20220929184023 24 255 3.2 6.4 0.00 0.00 0.00 73 1012.9
20220929183523 24 201 3.2 11.3 0.00 0.00 0.00 72 1012.9
20220929183023 24 209 6.4 11.3 0.00 0.00 0.00 72 1012.7
20220929182522 24 242 3.2 11.3 0.00 0.00 0.00 72 1012.8
20220929182022 24 259 3.2 11.3 0.00 0.00 0.00 72 1012.8
20220929181523 24 263 4.8 11.3 0.00 0.00 0.00 71 1012.7
20220929181022 24 263 4.8 16.1 0.00 0.00 0.00 71 1012.6
20220929180520 24 209 9.7 16.1 0.00 0.00 0.00 71 1012.4
20220929180020 24 225 8.0 16.1 0.00 0.00 0.00 71 1012.5
20220929175529 24 221 8.0 16.1 0.00 0.00 0.00 71 1012.3
20220929175121 24 223 6.4 17.7 0.00 0.00 0.00 70 1012.3
20220929174531 24 248 9.7 17.7 0.00 0.00 0.00 70 1012.3
20220929174022 24 225 9.7 20.9 0.00 0.00 0.00 69 1012.2
20220929173522 25 213 9.7 20.9 0.00 0.00 0.00 68 1012.2
20220929173035 25 255 9.7 16.1 0.00 0.00 0.00 67 1012.2
20220929172525 25 226 6.4 14.5 0.00 0.00 0.00 67 1012.1
20220929172020 25 254 11.3 14.5 0.00 0.00 0.00 66 1012.0
20220929171537 25 239 8.0 16.1 0.00 0.00 0.00 65 1012.1
20220929171017 25 248 8.0 14.5 0.00 0.00 0.00 64 1012.1
20220929170516 25 239 6.4 14.5 0.00 0.00 0.00 63 1012.0
20220929170023 25 234 6.4 16.1 0.00 0.00 0.00 61 1012.0